Billings, MT

12:09 AM MDT on July 25, 2017 (GMT -0600)
Billings Logan International

Weather History for KBIL - July, 2013

Change the Weather History Date:

Monday, July 29, 2013

  Actual Average Record
Temperature  
Mean Temperature 66 °F 74 °F  
Max Temperature 75 °F 89 °F 102 °F (1939)
Min Temperature 56 °F 60 °F 43 °F (1971)
Degree Days  
Heating Degree Days 0 0  
Month to date heating degree days 0 12  
Since 1 June heating degree days 73 108  
Since 1 July heating degree days 0 12  
Cooling Degree Days 1 10  
Month to date cooling degree days 289 238  
Year to date cooling degree days 412 340  
Since 1 June cooling degree days 385 323  
Growing Degree Days 14 (Base 50)    
Moisture  
Dew Point 51 °F    
Average Humidity 70    
Maximum Humidity 93    
Minimum Humidity 46    
Precipitation  
Precipitation 0.06 in 0.04 in 0.96 in (1985)
Month to date precipitation 0.62 1.25  
Year to date precipitation 7.94 9.23  
Snow  
Snow 0.00 in 0.00 in T in (1950)
Month to date snowfall 0.0 0.0  
Since 1 June snowfall 0.0 0.0  
Since 1 July snowfall 0.0 0.0  
Snow Depth 0.00 in    
Sea Level Pressure  
Sea Level Pressure 29.97 in    
Wind  
Wind Speed 11 mph (NE)    
Max Wind Speed 25 mph    
Max Gust Speed 30 mph    
Visibility 10 miles    
Events Rain    
T = Trace of Precipitation, MM = Missing Value Source: NWS Daily Summary

Daily Weather History Graph

Daily Weather History Graph

Search for Another Location

Airport or City:

Trip Planner

Search our weather history database for the weather conditions in past years. The results will help you decide how hot, cold, wet, or windy it might be!

Date:

Astronomy

Jul. 29, 2013 Rise Set
Actual Time 5:54 AM MDT 8:46 PM MDT
Civil Twilight 5:19 AM MDT 9:21 PM MDT
Nautical Twilight 4:34 AM MDT 10:05 PM MDT
Astronomical Twilight 3:42 AM MDT 10:57 PM MDT
Moon No Moon Rise 2:07 PM MDT (7/29)
Length of Visible Light 16h 01m
Length of Day
14h 52m
Waning Gibbous, 50% of the Moon is Illuminated
Jul 29
Waning Gibbous
Aug 6
New
Aug 14
First Quarter
Aug 20
Full
Aug 28
Last Quarter

Hourly Weather History & Observations

Time (MDT) Temp. Dew Point Humidity Pressure Visibility Wind Dir Wind Speed Gust Speed Precip Events Conditions
12:53 AM 61.0 °F 53.1 °F 75% 29.86 in 10.0 mi NNE 5.8 mph - N/A   Scattered Clouds
1:53 AM 61.0 °F 53.1 °F 75% 29.85 in 10.0 mi SE 3.5 mph - N/A   Scattered Clouds
2:53 AM 59.0 °F 54.0 °F 83% 29.85 in 10.0 mi NNW 8.1 mph - N/A   Partly Cloudy
3:53 AM 59.0 °F 54.0 °F 83% 29.85 in 10.0 mi WNW 16.1 mph 20.7 mph N/A   Mostly Cloudy
4:53 AM 61.0 °F 52.0 °F 72% 29.88 in 10.0 mi NW 9.2 mph - 0.00 in   Mostly Cloudy
5:53 AM 60.1 °F 53.1 °F 78% 29.91 in 10.0 mi North 16.1 mph - 0.00 in Rain Light Rain
6:53 AM 55.9 °F 53.1 °F 90% 29.95 in 10.0 mi NNE 20.7 mph 28.8 mph 0.06 in Rain Light Rain
7:53 AM 57.0 °F 52.0 °F 83% 30.00 in 10.0 mi NE 11.5 mph - 0.00 in   Mostly Cloudy
8:53 AM 57.9 °F 50.0 °F 75% 30.05 in 10.0 mi NE 4.6 mph - N/A   Mostly Cloudy
9:53 AM 60.1 °F 48.9 °F 67% 30.05 in 10.0 mi East 6.9 mph - N/A   Mostly Cloudy
10:53 AM 61.0 °F 48.9 °F 64% 30.06 in 10.0 mi ENE 8.1 mph - N/A   Mostly Cloudy
11:53 AM 63.0 °F 50.0 °F 63% 30.05 in 10.0 mi East 6.9 mph - N/A   Scattered Clouds
1:53 PM 71.1 °F 51.1 °F 49% 30.00 in 10.0 mi NE 10.4 mph - N/A   Partly Cloudy
2:53 PM 73.0 °F 51.1 °F 46% 29.98 in 10.0 mi ENE 10.4 mph - N/A   Partly Cloudy
3:53 PM 73.9 °F 52.0 °F 46% 29.97 in 10.0 mi NE 12.7 mph - N/A   Partly Cloudy
4:53 PM 73.9 °F 51.1 °F 45% 29.96 in 10.0 mi NE 15.0 mph - N/A   Partly Cloudy
5:53 PM 73.9 °F 52.0 °F 46% 29.97 in 10.0 mi NE 13.8 mph - N/A   Scattered Clouds
6:53 PM 73.0 °F 51.1 °F 46% 29.97 in 10.0 mi NE 13.8 mph - N/A   Mostly Cloudy
7:53 PM 71.1 °F 51.1 °F 49% 29.98 in 10.0 mi ENE 15.0 mph - N/A   Scattered Clouds
8:53 PM 69.1 °F 50.0 °F 51% 29.99 in 10.0 mi ENE 12.7 mph - N/A   Scattered Clouds
9:53 PM 66.9 °F 50.0 °F 54% 29.99 in 10.0 mi ENE 10.4 mph - N/A   Partly Cloudy
10:53 PM 66.9 °F 50.0 °F 54% 29.99 in 10.0 mi ENE 11.5 mph - N/A   Scattered Clouds
11:53 PM 66.0 °F 51.1 °F 59% 29.99 in 10.0 mi NNE 5.8 mph - N/A   Mostly Cloudy